FW6725 Weather Reports


Display with metric or nautical units.
time (UTC)temp
F
wind
direction
speed
MPH
gust
MPH
rain 1hr
in
rain 24hr
in
rain mn
in
humidity
%
barometer
mb
20260508100103 55 335 9.0 19.0 0.00 0.00 0.00 24 1025.6
20260508095041 54 333 10.0 19.0 0.00 0.00 0.00 25 1025.6
20260508094042 54 328 7.0 15.0 0.00 0.00 0.00 24 1025.6
20260508093101 55 335 6.0 14.0 0.00 0.00 0.00 26 1025.6
20260508092100 54 320 7.0 16.0 0.00 0.00 0.00 28 1025.6
20260508091059 53 340 8.0 14.0 0.00 0.00 0.00 28 1025.6
20260508090057 53 1 7.0 14.0 0.00 0.00 0.00 29 1025.7
20260508085036 53 346 7.0 14.0 0.00 0.00 0.00 28 1025.7
20260508084036 53 335 7.0 14.0 0.00 0.00 0.00 31 1025.7
20260508083055 52 352 7.0 14.0 0.00 0.00 0.00 31 1025.7
20260508082034 52 337 8.0 14.0 0.00 0.00 0.00 33 1025.7
20260508081036 53 332 6.0 15.0 0.00 0.00 0.00 31 1025.7
20260508080031 52 327 6.0 13.0 0.00 0.00 0.00 33 1025.7
20260508075031 52 320 7.0 13.0 0.00 0.00 0.00 34 1025.6
20260508074031 50 320 7.0 13.0 0.00 0.00 0.00 36 1025.5
20260508073029 51 334 7.0 13.0 0.00 0.00 0.00 36 1025.4
20260508072028 50 324 7.0 12.0 0.00 0.00 0.00 37 1025.4
20260508071047 49 355 7.0 12.0 0.00 0.00 0.00 38 1025.3
20260508070026 49 324 7.0 12.0 0.00 0.00 0.00 39 1025.3
20260508065044 49 342 7.0 13.0 0.00 0.00 0.00 40 1025.2
20260508064025 48 339 7.0 11.0 0.00 0.00 0.00 41 1025.1
20260508063044 48 344 7.0 12.0 0.00 0.00 0.00 42 1025.0
20260508062043 47 338 7.0 11.0 0.00 0.00 0.00 43 1024.9
20260508061021 46 344 7.0 11.0 0.00 0.00 0.00 45 1024.8
20260508060020 45 346 6.0 10.0 0.00 0.00 0.00 47 1024.7
20260508055019 45 343 6.0 12.0 0.00 0.00 0.00 48 1024.6
20260508054038 44 349 6.0 12.0 0.00 0.00 0.00 49 1024.5
20260508053016 44 339 5.0 10.0 0.00 0.00 0.00 50 1024.5
20260508052017 43 343 6.0 10.0 0.00 0.00 0.00 52 1024.3
20260508051046 43 334 6.0 10.0 0.00 0.00 0.00 54 1024.2
20260508050045 43 340 5.0 10.0 0.00 0.00 0.00 55 1024.1
20260508045044 42 335 5.0 10.0 0.00 0.00 0.00 56 1024.0
20260508044042 41 341 5.0 8.0 0.00 0.00 0.00 56 1023.8
20260508043040 41 334 5.0 8.0 0.00 0.00 0.00 57 1023.8
20260508042039 40 333 5.0 7.0 0.00 0.00 0.00 58 1023.7
20260508041038 39 332 4.0 8.0 0.00 0.00 0.00 60 1023.6
20260508040037 39 328 3.0 6.0 0.00 0.00 0.00 62 1023.5
20260508035036 38 319 3.0 5.0 0.00 0.00 0.00 64 1023.4
20260508034035 38 309 3.0 5.0 0.00 0.00 0.00 66 1023.3
20260508033035 37 312 3.0 5.0 0.00 0.00 0.00 67 1023.1
20260508032034 37 311 3.0 5.0 0.00 0.00 0.00 66 1023.0
20260508031033 36 318 4.0 7.0 0.00 0.00 0.00 67 1022.9
20260508030032 36 316 3.0 5.0 0.00 0.00 0.00 67 1022.9
20260508025030 35 308 3.0 5.0 0.00 0.00 0.00 68 1022.8
20260508024031 36 306 3.0 5.0 0.00 0.00 0.00 67 1022.6
20260508023030 36 307 3.0 5.0 0.00 0.00 0.00 68 1022.5
20260508022029 36 307 3.0 6.0 0.00 0.00 0.00 67 1022.3
20260508021028 36 316 4.0 7.0 0.00 0.00 0.00 65 1022.2
20260508020026 37 321 4.0 6.0 0.00 0.00 0.00 64 1022.1
20260508015027 37 327 4.0 7.0 0.00 0.00 0.00 62 1022.0
20260508014045 37 321 4.0 9.0 0.00 0.00 0.00 63 1021.9
20260508013023 38 326 5.0 8.0 0.00 0.00 0.00 60 1021.8
20260508012022 38 327 4.0 7.0 0.00 0.00 0.00 59 1021.7
20260508011021 38 324 5.0 7.0 0.00 0.00 0.00 58 1021.6
20260508010040 38 329 4.0 7.0 0.00 0.00 0.00 58 1021.4
20260508005019 38 328 5.0 8.0 0.00 0.00 0.00 58 1021.3
20260508004018 38 330 5.0 9.0 0.00 0.00 0.00 57 1021.2
20260508003038 39 338 6.0 10.0 0.00 0.00 0.00 56 1021.1
20260508002037 39 339 6.0 10.0 0.00 0.00 0.00 55 1021.0
20260508001106 39 336 6.0 11.0 0.00 0.00 0.00 55 1020.8
20260508000105 40 336 6.0 11.0 0.00 0.00 0.00 56 1020.7
20260507235043 40 331 5.0 10.0 0.00 0.00 0.00 57 1020.6
20260507234042 40 316 5.0 9.0 0.00 0.00 0.00 56 1020.5
20260507233041 40 318 4.0 8.0 0.00 0.00 0.00 56 1020.4
20260507232042 40 324 4.0 7.0 0.00 0.00 0.00 55 1020.3
20260507231040 41 325 4.0 8.0 0.00 0.00 0.00 55 1020.2
20260507230039 41 327 4.0 8.0 0.00 0.00 0.00 57 1020.0
20260507225038 41 321 3.0 8.0 0.00 0.00 0.00 58 1019.9
20260507224036 41 314 3.0 9.0 0.00 0.00 0.00 57 1019.8
20260507223037 41 314 2.0 7.0 0.00 0.00 0.00 56 1019.7
20260507222056 42 314 3.0 6.0 0.00 0.00 0.00 53 1019.6
20260507221035 42 311 3.0 8.0 0.00 0.00 0.00 52 1019.5
20260507220033 42 306 3.0 8.0 0.00 0.00 0.00 51 1019.4
20260507215033 43 302 3.0 6.0 0.00 0.00 0.00 51 1019.3
20260507214031 43 301 3.0 6.0 0.00 0.00 0.00 50 1019.2
20260507213050 43 299 3.0 6.0 0.00 0.00 0.00 48 1019.0
20260507212030 44 299 4.0 9.0 0.00 0.00 0.00 47 1018.9
20260507211028 44 304 4.0 11.0 0.00 0.00 0.00 45 1018.7
20260507210027 44 302 4.0 10.0 0.00 0.00 0.00 44 1018.6
20260507205026 45 306 4.0 10.0 0.00 0.00 0.00 43 1018.5
20260507204025 45 310 4.0 7.0 0.00 0.00 0.00 42 1018.4
20260507203024 45 299 4.0 8.0 0.00 0.00 0.00 40 1018.2
20260507202023 46 304 4.0 10.0 0.00 0.00 0.00 38 1018.1
20260507201022 47 312 5.0 13.0 0.00 0.00 0.00 36 1018.0
20260507200021 47 311 6.0 13.0 0.00 0.00 0.00 35 1017.8
20260507195021 47 311 6.0 13.0 0.00 0.00 0.00 35 1017.7
20260507194020 47 320 4.0 10.0 0.00 0.00 0.00 35 1017.6
20260507193018 48 324 5.0 9.0 0.00 0.00 0.00 34 1017.4
20260507192037 48 328 4.0 9.0 0.00 0.00 0.00 34 1017.3
20260507191016 48 331 5.0 9.0 0.00 0.00 0.00 33 1017.1
20260507190047 49 329 6.0 13.0 0.00 0.00 0.00 31 1016.9
20260507185045 49 322 7.0 14.0 0.00 0.00 0.00 30 1016.8
20260507184044 50 310 5.0 14.0 0.00 0.00 0.00 29 1016.6
20260507183043 48 308 2.0 6.0 0.00 0.00 0.00 30 1016.6
20260507182042 48 243 3.0 7.0 0.00 0.00 0.00 28 1016.5
20260507181040 49 189 4.0 8.0 0.00 0.00 0.00 26 1016.2
20260507180040 49 171 5.0 8.0 0.00 0.00 0.00 26 1016.1
20260507175038 50 170 5.0 9.0 0.00 0.00 0.00 26 1016.0
20260507174037 50 176 6.0 12.0 0.00 0.00 0.00 25 1015.9
20260507173036 50 171 6.0 12.0 0.00 0.00 0.00 24 1015.8
20260507172035 51 165 6.0 13.0 0.00 0.00 0.00 24 1015.7
20260507171036 51 164 6.0 13.0 0.00 0.00 0.00 24 1015.6
20260507170035 52 162 7.0 12.0 0.00 0.00 0.00 24 1015.6
20260507165033 52 182 7.0 14.0 0.00 0.00 0.00 24 1015.5
20260507164032 52 183 8.0 14.0 0.00 0.00 0.00 24 1015.4
20260507163050 53 179 9.0 16.0 0.00 0.00 0.00 23 1015.3
20260507162029 53 179 9.0 16.0 0.00 0.00 0.00 23 1015.2
20260507161030 54 188 9.0 17.0 0.00 0.00 0.00 23 1015.1
20260507160029 54 192 10.0 16.0 0.00 0.00 0.00 23 1015.0
20260507155047 54 194 9.0 16.0 0.00 0.00 0.00 23 1014.9
20260507154026 55 195 8.0 13.0 0.00 0.00 0.00 23 1015.0
20260507153045 55 206 8.0 13.0 0.00 0.00 0.00 23 1014.9
20260507152023 57 196 7.0 14.0 0.00 0.00 0.00 21 1014.9
20260507151022 55 177 5.0 13.0 0.00 0.00 0.00 23 1014.8
20260507150041 55 173 7.0 14.0 0.00 0.00 0.00 23 1014.9
20260507145020 57 88 2.0 6.0 0.00 0.00 0.00 16 1014.9
20260507144018 56 339 3.0 8.0 0.00 0.00 0.00 17 1014.8
20260507143020 56 297 5.0 9.0 0.00 0.00 0.00 17 1014.8
20260507142018 56 279 4.0 8.0 0.00 0.00 0.00 17 1014.8
20260507141037 57 269 5.0 8.0 0.00 0.00 0.00 17 1014.7
20260507140046 57 243 4.0 8.0 0.00 0.00 0.00 18 1014.7
20260507135045 56 257 4.0 8.0 0.00 0.00 0.00 17 1014.7
20260507134044 57 274 5.0 9.0 0.00 0.00 0.00 17 1014.7
20260507133043 56 266 4.0 9.0 0.00 0.00 0.00 18 1014.7
20260507132043 57 285 5.0 10.0 0.00 0.00 0.00 18 1014.7
20260507131041 56 303 7.0 11.0 0.00 0.00 0.00 18 1014.8
20260507130040 57 302 4.0 11.0 0.00 0.00 0.00 18 1014.8
20260507125059 56 290 6.0 10.0 0.00 0.00 0.00 19 1014.8
20260507124038 56 297 4.0 11.0 0.00 0.00 0.00 18 1014.8
20260507123037 56 289 6.0 11.0 0.00 0.00 0.00 20 1014.8
20260507122037 55 309 5.0 10.0 0.00 0.00 0.00 20 1014.8
20260507121058 56 326 5.0 9.0 0.00 0.00 0.00 20 1014.8
20260507120055 56 294 5.0 10.0 0.00 0.00 0.00 21 1014.8
20260507115053 55 281 6.0 10.0 0.00 0.00 0.00 20 1014.8
20260507114032 55 251 5.0 9.0 0.00 0.00 0.00 20 1014.8
20260507113031 55 296 6.0 13.0 0.00 0.00 0.00 20 1014.8
20260507112030 56 271 5.0 13.0 0.00 0.00 0.00 21 1014.8
20260507111029 55 274 5.0 10.0 0.00 0.00 0.00 21 1014.9
20260507110108 55 286 5.0 11.0 0.00 0.00 0.00 21 1014.9
20260507105027 54 300 7.0 13.0 0.00 0.00 0.00 21 1014.8
20260507104026 55 299 5.0 13.0 0.00 0.00 0.00 21 1014.8
20260507103026 55 230 5.0 10.0 0.00 0.00 0.00 22 1014.8
20260507102024 54 270 6.0 9.0 0.00 0.00 0.00 22 1014.8
20260507101043 54 291 7.0 11.0 0.00 0.00 0.00 22 1014.8